{"data":{"norad_id":51756,"epoch":"2026-05-24T18:34:27.073344Z","epoch_age_seconds":98129,"freshness":"FRESH","line1":"1 51756U 22016AU  26144.77392446  .00005215  00000+0  34570-3 0  9998","line2":"2 51756  53.2143 327.5640 0001245 105.7882 254.3247 15.08816415235190","mean_motion":15.08816415,"eccentricity":0.0001245,"inclination_deg":53.2143,"raan_deg":327.564,"arg_perigee_deg":105.7882,"mean_anomaly_deg":254.3247,"bstar":0.0003457,"rev_number":23519,"period_min":95.439046505867,"perigee_km":538.9541947291,"apogee_km":540.67676489657,"semimajor_km":6917.9524798128,"source":"CELESTRAK","updated_at":"2026-05-25T13:38:16.948555Z"}}